Vorticity
nan nan nan nan nan nan nan nan nan nan nan nan nan nan nan nan nan nan nan nan nan nan nan nan nan nan nan nan nan nan nan nan nan
nan 12 11 11 8 7 8 9 9 8 7 8 9 7 7 8 8 7 8 9 7 7 9 10 10 8 8 9 8 7 6 7 nan
nan 12 10 10 11 9 8 9 9 8 8 9 8 8 7 9 9 8 8 9 9 8 9 9 10 9 8 9 8 8 7 6 nan
nan 10 11 10 10 11 9 8 9 8 8 8 8 9 8 8 9 9 8 8 9 9 9 9 8 8 8 8 9 9 8 6 nan
nan 11 10 11 11 11 10 9 9 9 8 7 7 8 9 8 8 10 8 8 9 9 8 8 8 8 8 8 8 9 9 8 nan
nan 14 11 12 13 12 11 11 9 10 11 10 7 8 8 8 9 9 8 10 9 9 9 9 9 8 8 8 8 8 8 8 nan
nan 14 14 13 11 12 12 11 11 11 11 11 11 9 8 8 10 9 9 9 10 9 8 8 9 9 9 8 7 8 8 8 nan
nan 13 16 15 9 10 11 10 11 11 11 12 12 10 10 9 9 9 10 10 10 10 8 9 9 8 9 8 8 10 11 8 nan
nan 10 13 15 12 10 11 10 11 10 10 11 10 10 9 10 11 10 9 9 9 9 9 9 9 9 9 7 8 12 11 8 nan
nan 9 10 13 17 13 11 11 10 12 10 10 10 9 10 10 10 10 10 9 9 9 9 9 10 10 9 9 9 13 12 8 nan
nan 11 12 13 15 16 15 14 9 11 13 10 10 9 9 10 10 9 10 10 9 9 10 10 9 10 9 8 9 13 11 10 nan
nan 15 15 16 18 19 18 16 14 12 11 10 9 10 9 10 10 10 10 10 9 9 10 9 10 10 10 8 10 13 10 7 nan
nan 20 23 25 26 24 17 15 13 12 11 8 9 10 9 9 10 10 9 10 10 9 10 9 10 10 10 9 11 10 13 6 nan
nan 16 24 36 30 18 16 15 13 10 11 10 9 11 12 10 10 9 9 9 10 10 9 10 10 10 11 13 11 12 15 7 nan
nan 13 19 27 29 23 18 13 10 11 9 12 13 12 11 10 10 9 11 10 10 10 10 9 10 10 10 12 15 15 12 13 nan
nan 13 14 17 19 17 20 19 18 14 12 15 11 9 10 11 10 9 10 11 9 10 10 9 10 10 10 11 13 17 15 13 nan
nan 11 11 12 11 11 14 17 18 17 19 15 12 10 9 10 11 10 9 9 10 10 10 10 10 10 10 11 10 11 13 12 nan
nan 8 10 11 10 8 9 9 10 11 18 23 18 13 12 10 11 11 9 7 14 19 12 14 15 10 11 14 14 17 16 15 nan
nan 9 11 9 10 10 9 9 8 8 11 17 22 18 14 14 16 11 12 8 1 6 18 22 23 21 16 9 15 23 20 18 nan
nan nan nan nan nan nan nan nan nan nan nan nan nan nan nan nan nan nan nan nan nan nan nan nan nan nan nan nan nan nan nan nan nan
CAPE
594 673 549 489 380 533 567 654 802 423 694 771 791 856 1183 1374 1575 779 757 1244 722 691 534 768 1422 1933 1927 2112 2230 2225 2196 1979 1986
587 733 662 581 491 527 713 683 735 786 840 811 771 543 1077 1279 1408 1365 990 1538 1246 747 1192 600 1326 1760 1886 1980 2083 2212 2292 2054 2301
406 624 768 691 640 606 748 633 686 748 773 864 867 760 882 936 1221 1322 1374 1376 1444 1406 903 991 990 1783 1893 2061 2097 2225 2394 2086 2313
107 471 703 765 902 910 777 553 685 772 667 908 835 847 882 1011 981 1012 1143 994 1094 1594 1159 1319 1550 1862 1947 2063 2133 2249 2476 2396 2245
1 189 495 755 816 799 818 999 892 766 840 634 821 869 968 975 964 1021 875 1264 997 1387 1669 1389 1620 1702 1908 2031 2060 2141 2333 2266 1998
12 135 307 510 468 750 1095 1075 1097 987 915 651 582 922 636 851 986 909 1311 1427 1385 1450 1605 1718 1325 1560 1775 1998 2002 2122 2237 2312 2378
0 12 182 333 222 582 925 1056 1197 1207 1018 764 770 738 835 1135 1267 1343 1304 1647 1783 1341 1857 1816 1769 1764 1902 1849 1979 2062 2155 2268 2423
0 0 3 264 352 540 874 1188 1149 1237 1160 1205 1034 1297 1210 1335 1479 1609 1765 1940 2011 1762 1741 1976 2018 1905 1743 1827 1801 1703 2128 2343 2521
24 50 1 26 296 654 781 1092 1143 1144 1235 1300 1359 1509 1498 1623 1737 1855 1941 2108 2182 2040 1971 1953 2180 1835 2059 1924 1656 1051 1025 1738 2301
141 209 446 250 3 682 910 1092 1292 1218 1327 1417 1472 1594 1780 1939 2022 2040 2139 2246 2401 2534 2298 2061 2213 1922 1983 2199 2480 1263 436 368 1927
30 118 318 604 314 36 1001 790 881 1246 1277 1571 1595 1726 1892 2128 2198 2173 2260 2320 2382 2575 2514 2608 2519 2198 2295 2304 2526 1517 402 2 1411
3 55 135 922 890 0 849 1049 1360 1520 1703 1732 1747 1837 1961 2215 2324 2357 2427 2402 2402 2197 2084 2151 2419 2321 2486 2460 2532 1196 556 17 1615
39 440 1111 772 180 5 817 1220 1234 1630 1694 2004 2018 2071 2133 2379 2531 2611 2690 2809 2824 2820 2466 2136 2003 2115 2396 2239 2773 1948 50 0 1601
2 194 879 726 493 1038 1222 1450 1471 1814 2099 2312 2170 2078 2183 2717 2819 2899 3000 3114 3202 2839 2631 2832 2669 2494 2596 2474 2288 2423 683 0 1639
0 77 444 1205 946 1092 1336 1591 1766 2029 2344 2713 2950 3037 2941 3118 3159 2587 2569 3165 3028 2937 3163 3000 3135 3051 2973 2859 2858 1850 1264 0 50
0 1 458 816 1357 1547 1500 1284 1848 1997 2184 2723 2936 3202 3315 3159 3136 2929 3356 3169 3201 2857 3061 2919 3036 3047 3095 3130 3242 3415 1507 179 0
0 0 40 581 1039 1281 1545 1891 2122 2286 2479 1972 2390 2995 3261 3299 3268 3058 3269 2930 3001 3016 3088 3125 3180 3257 3318 3375 3540 3684 3662 1950 315
0 0 0 101 534 901 1007 1420 1371 1322 1771 2630 2300 2231 2503 2646 2704 2815 3181 3287 1937 3191 3497 2745 3387 3518 3570 3638 3751 3722 3491 3641 3498
0 0 0 0 21 612 679 723 657 632 585 1228 2390 3255 2691 2139 2068 2194 2730 993 24 0 0 2 499 2364 3266 1243 519 1066 1175 1165 2078
0 0 0 0 0 0 251 308 147 123 424 634 1156 1497 1211 2383 1813 1838 1995 1498 1206 190 0 1 2 3 27 358 6 2 2 2 2